weather.gov     
National Weather Service

Regional Weather Roundup
NWS Homepage
This page is being discontinued on March 12, 2014.
The same data is available at this site. Please update your bookmarks.
Thank you, and we apologize for the inconvenience.
Please send an email to SR-SRH.Webmaster@noaa.gov with any concerns.


Current Version
Previous Version:    01  02  03  04  05  06  07  08  09  10  11  12  13  14  15  16  17  18  19  20  21  22  23  24  25  26  
[Printable]
922
ASUS44 KMOB 230310
RWRMOB
REGIONAL WEATHER ROUNDUP
NATIONAL WEATHER SERVICE MOBILE AL
1000 PM CDT WED OCT 22 2014

NOTE: "FAIR" INDICATES FEW OR NO CLOUDS BELOW 12,000 FEET WITH NO
      SIGNIFICANT WEATHER AND/OR OBSTRUCTIONS TO VISIBILITY.

  * THESE STATIONS ARE PART OF THE UNIVERSITY OF SOUTH ALABAMA
    MESONET AND ARE NOT UNDER NWS OR FAA QUALITY CONTROL.

ALZ061>064-230400-
COASTAL ALABAMA

CITY           SKY/WX    TMP DP  RH WIND       PRES   REMARKS
MOBILE REG APT CLEAR     58  47  66 NE7       30.10R
BROOKLEY FIELD CLEAR     65  50  58 N12       30.10R
USA CAMPUS*      N/A     61  46  59 CALM      30.11R
DOG RIVER*     NOT AVBL


CITY           SKY/WX    TMP DP  RH WIND       PRES   REMARKS
MOUNT VERNON*    N/A     48  46  93 CALM      30.11R
SARALAND*      NOT AVBL
BAY MINETTE*   NOT AVBL
LOXLEY*          N/A     55  46  71 N7        30.10R
ROBERTSDALE*     N/A     57  46  67 N2        30.09R
FAIRHOPE*        N/A     59  46  63 NE5       30.08R
ELBERTA*         N/A     59  48  67 VRB3      30.08R
FOLEY*           N/A     54  45  71 CALM      30.08R
GRAND BAY*       N/A     57  50  77 NE3       30.07R
DAUPHIN ISLND* NOT AVBL
BON SCOUR NWR* NOT AVBL
GULF SHORES    CLEAR     60  47  62 N5        30.08R

$$

ALZ051>060-230400-
INTERIOR SOUTHWEST AND SOUTH CENTRAL ALABAMA

CITY           SKY/WX    TMP DP  RH WIND       PRES   REMARKS
GREENVILLE     CLEAR     56  43  61 N3        30.10S
EVERGREEN      CLEAR     50  46  86 CALM      30.11R
CASTLEBERRY*   NOT AVBL
ATMORE*          N/A     57  45  62 NE5       30.11R
DIXIE*           N/A     54  48  82 CALM      30.08R
ANDALUSIA/OPP  CLEAR     60  45  57 N5        30.10R
ANDALUSIA*       N/A     57  46  67 CALM      30.10R
FLORALA APT    CLEAR     55  45  68 N3        30.12R
FLORALA*         N/A     54  45  71 CALM      30.08R

$$

FLZ001>006-230400-
WESTERN FLORIDA PANHANDLE

CITY           SKY/WX    TMP DP  RH WIND       PRES   REMARKS
PENSACOLA      CLEAR     61  49  64 N3        30.08R
NAS PENSACOLA  CLEAR     61  48  62 N7        30.08R
MILTON         CLEAR     52  45  77 CALM      30.10R
WHTNG S FIELD  CLEAR     59  45  59 N7        30.09R


CITY           SKY/WX    TMP DP  RH WIND       PRES   REMARKS
WALNUT HILL*   NOT AVBL
JAY*             N/A     57  45  62 NE5       30.10R
DUKE FIELD     CLEAR     52  46  80 CALM      30.08R
CRESTVIEW      CLEAR     56  45  66 NE5       30.10R
VALPARAISO     CLEAR     56  46  69 N7        30.08R
DESTIN         CLEAR     66  48  52 N7        30.08R

$$

MSZ076-079-230400-
INTERIOR SOUTHEAST MISSISSIPPI

CITY           SKY/WX    TMP DP  RH WIND       PRES   REMARKS
LEAKESVILLE*     N/A     57  43  58 NE5       30.11R
AGRICOLA*      NOT AVBL

$$

MARINE OBSERVATIONS

STATION/POSITION TIME  TEMP    WIND        PRES    WAVE
                       AIR SEA DIR/SP/G            HT/PER
                 (UTC) (F)     (DEG/KT/KT) (MB)    (FT/S)
PASCAGOULA       0300   66      50/  9/ 13 1018.3R
PETIT BOIS ISLND 0300   70      40/ 20/ 25 1018.4S
GRAND BAY        0200   64      20/  5     1019.0S
KATRINA CUT      0200   69      30/ 16     1018.3S
CEDAR POINT      0200   70      30/ 15     1018.3S
E DAUPHIN ISLAND 0300   70      30/ 18/ 21 1018.7R
MIDDLE BAY LIGHT 0200   69      40/ 20     1018.0R
USCG MOBILE BAY  0300   65 75   40/  8/ 13 1017.7R
STATE DOCKS      0300   64 75              1018.7R
MEAHER PARK      0200   63      20/  3     1019.0R
WEEKS BAY        0200   60                   N/A
FORT MORGAN      0300   69      50/ 21/ 24 1017.8S
12 S ORANGE BCH  0300   72 78   30/ 17/ 21 1017.6R   2/ 4
PENSACOLA BAY    0300   65 74   10/  4/  6 1018.8S
64 S DAUPHIN ISL 0153   75 79   40/ 14/ 16 1017.9    3/ 5
67 S FORT MORGAN 0100   74                 1016.6

$$

SELECTED LOCATIONS ACROSS THE REGION

CITY           SKY/WX    TMP DP  RH WIND       PRES   REMARKS
NEW ORLEANS    CLEAR     71  53  52 NE9       30.07R
GULFPORT       CLEAR     63  49  60 NE6       30.08R
PASCAGOULA AP  CLEAR     56  48  74 NE3       30.08R
PASCAGOULA*      N/A     64  46  52 NE5       30.08R
HATTIESBURG    CLEAR     61  47  59 N5        30.12R
LAUREL         CLEAR     55  45  67 N5        30.13R
MERIDIAN       CLEAR     49  46  90 CALM      30.13S
JACKSON        CLEAR     59  46  62 NE8       30.14R
MONTGOMERY     CLEAR     55  45  68 N5        30.12R
TROY           CLEAR     48  45  89 CALM      30.11R
KINSTON*       NOT AVBL
GENEVA*          N/A     55  45  67 NE2       30.11R
ASHFORD*         N/A     57  46  67 CALM      30.10R
DOTHAN         CLEAR     51  45  79 N3        30.12R
PANAMA CITY    CLEAR     56  46  69 N5        30.07R

$$





U.S. Dept. of Commerce
NOAA National Weather Service
1325 East West Highway
Silver Spring, MD 20910
E-mail: w-nws.webmaster@noaa.gov
Page last modified: May 16, 2007
NATIONAL WEATHER SERVICE: for Safety, for Work, for Fun - FOR LIFE